[[{"header":{"parameterUnit":"m.s-1","parameterCategory":1,"la1":30.2991,"la2":30.254,"lo1":-89.0895,"lo2":-89.0444,"dy":0.0017,"dx":0.0017,"nx":28,"ny":28,"refTime":"2023-09-09T03:00:00:Z","depth":0,"parameterNumber":2,"parameterNumberName":"U-component_of_WINDS"},"data":[0,0,0,0,0,0,0,0,0,0,0,0,0,0,0,0,0,0,0,0,0,0,0,0,0,0,0,0,0,0,0,0,0,0,0,0,0,0,0,0,0,0,0,0,0,0,0,0,0,0,0,0,0,0,0,0,0,0,-1.5745,-1.5745,0,-1.5765,-1.5765,-1.5765,-1.5699,-1.5697,-1.5695,-1.5693,-1.5713,-1.5715,-1.5717,0,0,0,0,0,0,0,0,0,0,0,0,0,-1.5649,-1.5651,-1.5745,-1.5745,-1.5745,-1.5765,-1.5765,-1.5765,-1.5699,-1.5697,-1.5695,-1.5692,-1.5712,-1.5715,-1.5718,0,0,0,0,0,0,0,0,0,0,0,0,0,-1.5682,-1.5652,-1.5745,-1.5715,-1.5713,-1.5765,-1.5765,-1.5765,-1.57,-1.5697,-1.5694,-1.5691,-1.5711,-1.5715,-1.5718,-1.58,0,0,-1.5729,-1.5731,0,0,0,0,0,0,0,0,-1.568,-1.5686,-1.5719,-1.5717,-1.5714,-1.5726,-1.5738,-1.5777,-1.5701,-1.5705,-1.5693,-1.569,-1.572,-1.5722,-1.5733,-1.5801,-1.5802,-1.5729,-1.5731,-1.5733,-1.5734,0,0,0,0,0,0,0,-1.5678,-1.5685,-1.5753,-1.572,-1.5717,-1.57,-1.5702,-1.5745,-1.5729,-1.5704,-1.5699,-1.5703,-1.5718,-1.5729,-1.5733,-1.5802,-1.5729,-1.5732,-1.5735,-1.5736,-1.5937,-1.594,0,0,0,0,0,0,-1.568,-1.5683,-1.5752,-1.5753,-1.569,-1.5704,-1.5706,-1.5726,-1.5728,-1.5726,-1.5705,-1.57,-1.5725,-1.5729,-1.5733,-1.5829,-1.5733,-1.5736,-1.5738,-1.5934,-1.5938,-1.5941,0,0,0,0,0,0,-1.5678,-1.5687,-1.5751,-1.5717,-1.5724,-1.5709,-1.5732,-1.5728,-1.5739,-1.5729,-1.5725,-1.572,-1.5723,-1.5728,-1.5784,-1.5828,-1.5738,-1.5741,-1.593,-1.5935,-1.594,-1.6021,0,0,0,0,0,0,-1.5676,-1.5687,-1.5718,-1.5718,-1.5726,-1.5802,-1.5735,-1.573,-1.5745,-1.5738,-1.5742,-1.574,-1.5721,-1.5779,-1.5787,-1.5832,-1.5744,-1.5926,-1.5933,-1.5938,-1.6014,-1.6028,-1.6039,0,0,0,0,0,-1.5673,-1.574,-1.572,-1.5728,-1.5765,-1.5805,-1.5809,-1.5786,-1.5749,-1.578,-1.5774,-1.574,-1.5822,-1.5785,-1.5794,-1.584,-1.5923,-1.5931,-1.5938,-1.6008,-1.6025,-1.6039,0,0,0,0,0,0,-1.5745,-1.5739,-1.5717,-1.5786,-1.5797,-1.5794,-1.5832,-1.5805,-1.5826,-1.5818,-1.5788,-1.5789,-1.585,-1.5851,-1.5809,-1.5919,-1.5866,-1.5876,-1.5917,-1.5933,-1.5945,-1.5944,-1.5747,0,0,0,0,0,-1.5769,-1.5802,-1.5795,-1.5857,-1.5863,-1.5847,-1.5864,-1.5845,-1.5854,-1.5858,-1.5856,-1.5866,-1.5894,-1.5913,-1.5939,-1.6013,-1.6013,-1.605,-1.6062,-1.6073,-1.6081,-1.6121,-1.6137,-1.5965,-1.5965,-1.5965,0,0,-1.5818,-1.582,-1.5842,-1.5872,-1.5877,-1.5912,-1.5851,-1.5891,-1.5916,-1.5864,-1.5917,-1.5915,-1.5924,-1.599,-1.6019,-1.5992,-1.6129,-1.6082,-1.6091,-1.6093,-1.613,-1.6146,-1.616,-1.597,-1.5969,-1.5968,0,0,-1.5927,-1.5931,-1.5983,-1.599,-1.6,-1.5989,-1.6001,-1.6003,-1.6,-1.6052,-1.6013,-1.6043,-1.6092,-1.61,-1.6111,-1.6223,-1.6192,-1.6232,-1.6298,-1.6337,-1.635,-1.6362,-1.6402,-1.6416,-1.624,-1.624,-1.624,0,-1.5988,-1.6039,-1.6013,-1.6056,-1.6069,-1.6024,-1.6076,-1.6084,-1.6102,-1.6112,-1.6082,-1.6142,-1.6145,-1.6212,-1.6239,-1.625,-1.6263,-1.6231,-1.6351,-1.6362,-1.6373,-1.641,-1.6425,-1.6245,-1.6245,-1.6244,-1.6244,0,-1.6113,-1.6149,-1.619,-1.6208,-1.6226,-1.6274,-1.6254,-1.6276,-1.6256,-1.6248,-1.6301,-1.6303,-1.6328,-1.6342,-1.6323,-1.6406,-1.6389,-1.6356,-1.6302,-1.6394,-1.6429,-1.6443,-1.6252,-1.625,-1.6249,-1.6248,0,0,-1.6268,-1.6271,-1.6286,-1.6294,-1.6301,-1.6329,-1.6373,-1.6398,-1.6417,-1.643,-1.6467,-1.6509,-1.6478,-1.649,-1.6471,-1.6505,-1.6593,-1.6466,-1.6466,-1.649,-1.6685,-1.671,-1.6727,-1.6572,-1.6575,-1.6577,-1.6684,0,-1.6374,-1.6451,-1.6429,-1.6506,-1.6539,-1.6497,-1.6535,-1.6544,-1.6538,-1.6564,-1.6556,-1.6587,-1.6543,-1.655,-1.6582,-1.6576,-1.6632,-1.6567,-1.6606,-1.6608,-1.6605,-1.6745,-1.6772,-1.6873,-1.6697,-1.6699,-1.6701,0,-1.6509,-1.6528,-1.6609,-1.661,-1.6623,-1.6659,-1.6679,-1.6705,-1.6714,-1.6707,-1.672,-1.6694,-1.6738,-1.6684,-1.6743,-1.67,-1.6714,-1.6714,-1.6717,-1.6719,-1.666,-1.6751,-1.6904,-1.6919,-1.6722,-1.672,-1.6719,0,-1.6613,-1.6659,-1.6713,-1.6721,-1.6724,-1.675,-1.6753,-1.6758,-1.6774,-1.6792,-1.6802,-1.6825,-1.6837,-1.6855,-1.6836,-1.6799,-1.6898,-1.6843,-1.6893,-1.6894,-1.6916,-1.6915,-1.7073,-1.6926,-1.6925,-1.6925,-1.6925,0,-1.6735,-1.6786,-1.676,-1.6793,-1.6849,-1.6823,-1.6878,-1.6876,-1.6881,-1.6913,-1.6877,-1.6908,-1.688,-1.6908,-1.6893,-1.6944,-1.695,-1.6945,-1.6941,-1.6948,-1.6949,-1.6957,-1.695,-1.6929,-1.6928,-1.6927,-1.6927,0,-1.6861,-1.6846,-1.6902,-1.69,-1.6901,-1.6942,-1.6941,-1.6971,-1.6962,-1.7002,-1.701,-1.6996,-1.7027,-1.7009,-1.7041,-1.7031,-1.7097,-1.7083,-1.7094,-1.7091,-1.7142,-1.7137,-1.731,-1.7332,-1.7171,-1.7173,-1.7174,0,-1.6939,-1.6977,-1.698,-1.6999,-1.7004,-1.7034,-1.7051,-1.7027,-1.7045,-1.7058,-1.7086,-1.7114,-1.7135,-1.7186,-1.7178,-1.7202,-1.7188,-1.7248,-1.7192,-1.7198,-1.7189,-1.7187,-1.719,-1.7259,-1.7261,-1.7262,-1.7263,0,-1.7079,-1.707,-1.7095,-1.7118,-1.7138,-1.7155,-1.7168,-1.7186,-1.7162,-1.7184,-1.7215,-1.7232,-1.7264,-1.7292,-1.7312,-1.7314,-1.7285,-1.7281,-1.7294,-1.7302,-1.7307,-1.7305,-1.7125,-1.7277,-1.7276,-1.7275,-1.7274,-1.7273,-1.7183,-1.7215,-1.7222,-1.7251,-1.7259,-1.7272,-1.7301,-1.7295,-1.7321,-1.7346,-1.733,-1.7367,-1.7374,-1.7398,-1.7404,-1.7432,-1.7408,-1.7427,-1.7431,-1.7436,-1.7443,-1.7303,-1.7436,-1.7435,-1.7435,-1.7434,-1.7434,0,-1.7321,-1.7324,-1.7351,-1.7371,-1.7394,-1.7365,-1.7378,-1.7399,-1.7432,-1.7442,-1.7463,-1.7499,-1.7526,-1.752,-1.7544,-1.7568,-1.7555,-1.7575,-1.7573,-1.7574,-1.7463,-1.745,-1.7585,-1.7585,-1.7585,-1.7585,-1.7585,-1.7585,-1.7396,-1.7448,-1.744,-1.7495,-1.7497,-1.7533,-1.7543,-1.7555,-1.7563,-1.7604,-1.7627,-1.7623,-1.7626,-1.765,-1.7674,-1.7671,-1.7682,-1.7707,-1.7699,-1.7596,-1.7581,-1.7567,-1.7554,-1.7709,-1.7709,-1.7807,-1.7808,-1.7809]},{"header":{"parameterUnit":"m.s-1","parameterCategory":1,"la1":30.2991,"la2":30.254,"lo1":-89.0895,"lo2":-89.0444,"dy":0.0017,"dx":0.0017,"nx":28,"ny":28,"refTime":"2023-09-09T03:00:00:Z","depth":0,"parameterNumber":3,"parameterNumberName":"V-component_of_WINDS"},"data":[0,0,0,0,0,0,0,0,0,0,0,0,0,0,0,0,0,0,0,0,0,0,0,0,0,0,0,0,0,0,0,0,0,0,0,0,0,0,0,0,0,0,0,0,0,0,0,0,0,0,0,0,0,0,0,0,0,0,-2.7963,-2.7964,0,-2.8081,-2.8082,-2.8083,-2.8086,-2.8084,-2.8083,-2.8081,-2.82,-2.8204,-2.8208,0,0,0,0,0,0,0,0,0,0,0,0,0,-2.7738,-2.7742,-2.7963,-2.7965,-2.7966,-2.8081,-2.8082,-2.8084,-2.8086,-2.8084,-2.8083,-2.8081,-2.8198,-2.8203,-2.8209,0,0,0,0,0,0,0,0,0,0,0,0,0,-2.7844,-2.7744,-2.7963,-2.7981,-2.7984,-2.808,-2.8082,-2.8084,-2.8086,-2.8084,-2.8082,-2.808,-2.8196,-2.8203,-2.821,-2.8295,0,0,-2.823,-2.8233,0,0,0,0,0,0,0,0,-2.7838,-2.7852,-2.7977,-2.798,-2.7983,-2.8066,-2.8046,-2.8155,-2.8087,-2.8047,-2.8081,-2.8079,-2.8157,-2.8167,-2.8194,-2.8301,-2.8306,-2.8231,-2.8235,-2.8238,-2.824,0,0,0,0,0,0,0,-2.783,-2.7847,-2.801,-2.7979,-2.7983,-2.7983,-2.7995,-2.8067,-2.8113,-2.8051,-2.8051,-2.8065,-2.8158,-2.8187,-2.8196,-2.8307,-2.8231,-2.8237,-2.8241,-2.8243,-2.849,-2.8493,0,0,0,0,0,0,-2.782,-2.7841,-2.8006,-2.8013,-2.7904,-2.7988,-2.8002,-2.8042,-2.8112,-2.8121,-2.8067,-2.8065,-2.8177,-2.8188,-2.8201,-2.8305,-2.8238,-2.8244,-2.8248,-2.8488,-2.8491,-2.8493,0,0,0,0,0,0,-2.7815,-2.7834,-2.8001,-2.7927,-2.7948,-2.7995,-2.8039,-2.8045,-2.8074,-2.8124,-2.8132,-2.8088,-2.8175,-2.8191,-2.8272,-2.8309,-2.8247,-2.8253,-2.8485,-2.8489,-2.8492,-2.8515,0,0,0,0,0,0,-2.7808,-2.7833,-2.7866,-2.7928,-2.7952,-2.8071,-2.8041,-2.8049,-2.8086,-2.8085,-2.8146,-2.8155,-2.8175,-2.8262,-2.8278,-2.8317,-2.8259,-2.8482,-2.8487,-2.8491,-2.8511,-2.8519,-2.8526,0,0,0,0,0,-2.78,-2.7867,-2.7868,-2.7888,-2.7995,-2.8073,-2.8087,-2.811,-2.8089,-2.8123,-2.8155,-2.8153,-2.8302,-2.827,-2.8289,-2.833,-2.8479,-2.8485,-2.8491,-2.8508,-2.8518,-2.8526,0,0,0,0,0,0,-2.7808,-2.7876,-2.7877,-2.7966,-2.8014,-2.8073,-2.8117,-2.8119,-2.8173,-2.8169,-2.8195,-2.8209,-2.8289,-2.8318,-2.828,-2.8417,-2.8388,-2.8398,-2.8395,-2.8405,-2.8412,-2.8403,-2.8264,0,0,0,0,0,-2.782,-2.7879,-2.7934,-2.8008,-2.8032,-2.807,-2.8105,-2.8118,-2.8168,-2.8188,-2.8227,-2.8275,-2.8333,-2.837,-2.8426,-2.8515,-2.8529,-2.8553,-2.8561,-2.8566,-2.8574,-2.8623,-2.8635,-2.8512,-2.8512,-2.8512,0,0,-2.7846,-2.789,-2.7925,-2.801,-2.8049,-2.8108,-2.8087,-2.8151,-2.8195,-2.8198,-2.8277,-2.8306,-2.8361,-2.8447,-2.8486,-2.8473,-2.8611,-2.8574,-2.8578,-2.8583,-2.863,-2.8642,-2.8652,-2.8516,-2.8515,-2.8514,0,0,-2.7923,-2.7962,-2.8028,-2.8067,-2.8126,-2.8151,-2.8167,-2.8226,-2.8246,-2.8326,-2.8329,-2.8382,-2.8481,-2.852,-2.8553,-2.8645,-2.8645,-2.8663,-2.8701,-2.8749,-2.8758,-2.8767,-2.88,-2.8811,-2.867,-2.867,-2.8671,0,-2.7947,-2.8037,-2.8061,-2.8125,-2.8162,-2.8168,-2.8234,-2.8271,-2.8345,-2.837,-2.8355,-2.848,-2.8517,-2.8612,-2.8634,-2.8661,-2.8679,-2.8656,-2.8755,-2.8764,-2.8773,-2.8804,-2.8816,-2.8672,-2.8672,-2.8672,-2.8672,0,-2.8064,-2.8126,-2.8172,-2.8244,-2.8286,-2.8351,-2.8383,-2.8423,-2.8433,-2.8459,-2.854,-2.8586,-2.8651,-2.8674,-2.8684,-2.877,-2.876,-2.875,-2.8722,-2.8786,-2.8815,-2.8828,-2.8675,-2.8674,-2.8674,-2.8673,0,0,-2.8149,-2.8233,-2.825,-2.8282,-2.8348,-2.8396,-2.8461,-2.8526,-2.8559,-2.861,-2.8664,-2.8748,-2.8739,-2.8776,-2.8791,-2.8832,-2.8902,-2.8817,-2.8818,-2.8831,-2.8999,-2.9007,-2.902,-2.8902,-2.8905,-2.8906,-2.8995,0,-2.8232,-2.8348,-2.8371,-2.8472,-2.8529,-2.8536,-2.8592,-2.8638,-2.8665,-2.8717,-2.8746,-2.8805,-2.8789,-2.8811,-2.8853,-2.8885,-2.8936,-2.8879,-2.8952,-2.8955,-2.8938,-2.9036,-2.9044,-2.9125,-2.9006,-2.9008,-2.901,0,-2.8346,-2.84,-2.8506,-2.8564,-2.8589,-2.8639,-2.87,-2.875,-2.8802,-2.8819,-2.8861,-2.887,-2.8937,-2.8906,-2.8998,-2.8959,-2.899,-2.901,-2.9014,-2.9021,-2.8986,-2.9046,-2.9151,-2.9163,-2.9028,-2.9027,-2.9026,0,-2.8397,-2.8496,-2.8573,-2.86,-2.867,-2.8705,-2.8735,-2.8785,-2.8823,-2.8876,-2.89,-2.896,-2.8993,-2.9039,-2.9064,-2.904,-2.9154,-2.9126,-2.9169,-2.9169,-2.9193,-2.9191,-2.9305,-2.9214,-2.9213,-2.9213,-2.9213,0,-2.8488,-2.8552,-2.8596,-2.8643,-2.8716,-2.8741,-2.8812,-2.8842,-2.8886,-2.8939,-2.8948,-2.8997,-2.9028,-2.9081,-2.9101,-2.9174,-2.9189,-2.9203,-2.9208,-2.9202,-2.9201,-2.9223,-2.9218,-2.9217,-2.9216,-2.9215,-2.9215,0,-2.8557,-2.8589,-2.8673,-2.8732,-2.8748,-2.8799,-2.8849,-2.8895,-2.8921,-2.8987,-2.9004,-2.9046,-2.9109,-2.9139,-2.9216,-2.923,-2.9313,-2.9314,-2.9295,-2.9297,-2.9339,-2.9335,-2.9471,-2.949,-2.9386,-2.9387,-2.9388,0,-2.8612,-2.8662,-2.8727,-2.8763,-2.8795,-2.8853,-2.8891,-2.8918,-2.8958,-2.9021,-2.9059,-2.9122,-2.9174,-2.9274,-2.9311,-2.9371,-2.9373,-2.9417,-2.9382,-2.9375,-2.9373,-2.937,-2.9375,-2.9423,-2.9424,-2.9424,-2.9425,0,-2.8708,-2.8722,-2.8777,-2.8838,-2.8884,-2.8933,-2.8982,-2.9011,-2.9045,-2.9089,-2.9154,-2.9194,-2.9274,-2.9337,-2.9399,-2.943,-2.9433,-2.9436,-2.9449,-2.9444,-2.9431,-2.9438,-2.9312,-2.9433,-2.9432,-2.9431,-2.9431,-2.9431,-2.8772,-2.8817,-2.8869,-2.8931,-2.897,-2.9015,-2.9061,-2.9094,-2.9148,-2.9216,-2.9228,-2.9297,-2.9348,-2.9431,-2.9464,-2.9518,-2.9508,-2.9527,-2.9532,-2.9536,-2.9538,-2.9423,-2.9529,-2.9529,-2.9529,-2.9529,-2.9529,0,-2.8868,-2.8902,-2.8959,-2.9026,-2.9074,-2.9074,-2.9128,-2.9168,-2.9229,-2.9276,-2.9327,-2.9402,-2.9463,-2.9504,-2.9566,-2.9601,-2.9604,-2.9616,-2.9614,-2.9621,-2.9544,-2.9526,-2.9612,-2.9612,-2.9612,-2.9612,-2.9612,-2.9612,-2.8924,-2.8999,-2.9019,-2.9114,-2.9148,-2.9216,-2.9246,-2.9288,-2.9325,-2.9408,-2.9459,-2.9486,-2.9531,-2.9596,-2.9652,-2.9662,-2.9685,-2.9697,-2.9707,-2.9635,-2.9626,-2.9618,-2.9601,-2.9702,-2.9702,-2.9779,-2.978,-2.9781]}]]